Address 0xc172dce13caf656e0924cbf198808607fa222723

 
Txn Hash
Block
From
To
Value [Txn Fee]
0xdd6a6208373e77cd474417c33f274fb8a472ea0d22a7b058ea38ea426228cff667501942021-04-21 4:52:113 hrs 57 mins ago0xc172dce13caf656e0924cbf198808607fa222723OUT 0xacb998562f6523811f2aeb0182ede4374039e35f0 BNB0.00576528
0x767838f19dcdf6637d35fddc565740ad9ee8249789147b79ac3d3bbe5a89126e67501732021-04-21 4:51:083 hrs 58 mins ago0xc172dce13caf656e0924cbf198808607fa222723OUT 0x1aca521795cac924f78145fe99b1e7735b6908640 BNB0.00076295
0x8231554b0be34c4922ba67a7a4db24c40e54c8f7aac198a55d0ba32724102e0967501692021-04-21 4:50:563 hrs 58 mins ago0xc172dce13caf656e0924cbf198808607fa222723OUT Bourbon Defi: TSB Token0 BNB0.000222035
0x13059f9d5d00654d084ca0efba19d958b4b36758b2f2a01196def3067b93928a67501522021-04-21 4:50:053 hrs 59 mins ago0xc172dce13caf656e0924cbf198808607fa222723OUT PancakeSwap: Router0.118493049453881 BNB0.00055505
0xd7342de9becdb18389d9a4127d2eb0f7feadfe2119a7531fad4d83c0b511808067501412021-04-21 4:49:323 hrs 59 mins ago0xc172dce13caf656e0924cbf198808607fa222723OUT PancakeSwap: Router0 BNB0.000735785
0x358dddbc021454acae583e0762e063f41f0d2a5769cc3e45a8d0bc2d342a156167501162021-04-21 4:48:174 hrs ago0xc172dce13caf656e0924cbf198808607fa222723OUT 0x1aca521795cac924f78145fe99b1e7735b6908640 BNB0.00074201
0x598692f0bb4d6459d8be90e72af23ee8dfe810c319a9306a1290f48d88b635a467501132021-04-21 4:48:084 hrs 1 min ago0xc172dce13caf656e0924cbf198808607fa222723OUT Rare Bourbon Token: RBT Token0 BNB0.000222035
0x8013db6305f80d3df17758b92765ec71dc7c895c3322c51e46b358b53d07773667500892021-04-21 4:46:564 hrs 2 mins ago0xc172dce13caf656e0924cbf198808607fa222723OUT PancakeSwap: Router0 BNB0.00055675
0x7eeb84af5f2a4c9b2c42edd9d0f0dde30c00b03a354a1383613a9754c87baa4d67500712021-04-21 4:46:024 hrs 3 mins ago0xc172dce13caf656e0924cbf198808607fa222723OUT PancakeSwap: Router0 BNB0.00063175
0x3bdeb0d60be5e7b08bef2aa5b4559ac21fdfc772c4820d3567b2cc283d8b7d4f67499422021-04-21 4:39:354 hrs 9 mins ago0xc172dce13caf656e0924cbf198808607fa222723OUT 0xa893176a721587daed3575bb25906fa06dd268170 BNB0.000672715
0x02f0727064c8e235b85c9f9c9314239e23a33a1e717b4a3afecf049273fc0aa267419602021-04-20 21:58:0810 hrs 51 mins agoBinance: Hot Wallet 2 IN 0xc172dce13caf656e0924cbf198808607fa2227230.16182831 BNB0.000126
0xf4405de90b91fa15773f5eab90583cf30e13c993cbde38b29b85521afb4ae0a067356432021-04-20 16:37:2916 hrs 11 mins ago0xc172dce13caf656e0924cbf198808607fa222723OUT Bourbon Barrel: BRRL Token0 BNB0.000222515
0x2358abe654a7857e6342ee0e052d8facd984a0b923b11d7396453c5faf779a1467355612021-04-20 16:33:2216 hrs 15 mins ago0xc172dce13caf656e0924cbf198808607fa222723OUT PancakeSwap: Router0 BNB0.0005579
0x3e41583b77f852f624e7296b9e8e064a44b46f1934ee6f270860cf7bc3191ae267355132021-04-20 16:30:5516 hrs 18 mins ago0xc172dce13caf656e0924cbf198808607fa222723OUT PancakeSwap: Router0 BNB0.00118336
0x572fd62622e643539c3657a6d0f473a0d962cd18b4e645e33624c36d0b54f74367354622021-04-20 16:28:2216 hrs 20 mins ago0xc172dce13caf656e0924cbf198808607fa222723OUT PancakeSwap: Router0 BNB0.000209015
0xdf2fed69a410b768d68a83a580554d2e2fb5648e1abc1ec94ff8f4d06e05702f67352282021-04-20 16:16:3816 hrs 32 mins ago0xc172dce13caf656e0924cbf198808607fa222723OUT PancakeSwap: Router0 BNB0.00106323
0x155743224b9bdfeeb9ebe6f309485f58509e394a1f3f86e3f8f6ee5871fc688767352012021-04-20 16:15:1716 hrs 33 mins ago0xc172dce13caf656e0924cbf198808607fa222723OUT PancakeSwap: Router0 BNB0.000886475
0x1bd4d98189709595713084857c93bac86ec68c4061d2acf33fac8d91c244be8367351712021-04-20 16:13:4716 hrs 35 mins ago0xc172dce13caf656e0924cbf198808607fa222723OUT PancakeSwap: Router0 BNB0.000209015
0x019dad031843264060ae8730b87da67dca6b8533755d19dd6f6384872695905667121412021-04-19 20:55:391 day 11 hrs ago0xc172dce13caf656e0924cbf198808607fa222723OUT 0xa893176a721587daed3575bb25906fa06dd268170 BNB0.000669415
0x02cf59321860a3c1d7c46043332160fbed19ba71ad475a9b0db247c7610c86be67121012021-04-19 20:53:391 day 11 hrs ago0xc172dce13caf656e0924cbf198808607fa222723OUT 0x624d14609fb85aa8cbf5a6d16ab4fd8149bf07980 BNB0.00066465
0x4fb6686a95569de50869fc7c05830963887c3c4a0dffd2e6da688313519fbfab67118122021-04-19 20:39:121 day 12 hrs ago0xc172dce13caf656e0924cbf198808607fa222723OUT 0x624d14609fb85aa8cbf5a6d16ab4fd8149bf07980 BNB0.00076541
0x10211bb99744450044432e39f42dcd11e9d9cf55aacc2f9dc90c55635446d95a67117992021-04-19 20:38:331 day 12 hrs ago0xc172dce13caf656e0924cbf198808607fa222723OUT 0xa893176a721587daed3575bb25906fa06dd268170 BNB0.00055498
0x5bb1e81b950e86dea9900b72318a2862a34376cc89d877b1defa2ff74d24dc0d67117792021-04-19 20:37:331 day 12 hrs ago0xc172dce13caf656e0924cbf198808607fa222723OUT Bourbon Barrel: BRRL Token0 BNB0.000222515
0x87bcf45a219dfdd485fae7804027cb9437f1a1ead113ce5d432aa75f8301d09c67087932021-04-19 18:08:151 day 14 hrs ago0xc172dce13caf656e0924cbf198808607fa222723OUT 0xa893176a721587daed3575bb25906fa06dd268170 BNB0.000669415
0x4f95e6a38c4333b5e25b1dc82ebf6f90784bc4d5537eae631c2f4e68eb224b9367087342021-04-19 18:05:181 day 14 hrs ago0xc172dce13caf656e0924cbf198808607fa222723OUT 0xa893176a721587daed3575bb25906fa06dd268170 BNB0.00055498
[ Download CSV Export 
Latest 4 internal transactions
Parent Txn Hash Block From To Value
0x531d117fa1bc933c1612ec77b8acc27502cc33d901539d08c0d27c9fcd176d8b66802672021-04-18 18:14:482 days 14 hrs ago Binance: WBNB Token0xc172dce13caf656e0924cbf198808607fa2227230.04391181945388122 BNB
0x70885e8c5639ec9766d08eae18c1c3f5d8b32073f925ee67f48898c98a6d0e9f66800772021-04-18 18:05:182 days 14 hrs ago PancakeSwap: Router0xc172dce13caf656e0924cbf198808607fa2227230.417230722330970341 BNB
0x201d6a192f86749d04dcbd2783de216091a3a8f62f54dffdb7e5f113fa11965b59536482021-03-24 6:52:5128 days 1 hr ago PancakeSwap: Router0xc172dce13caf656e0924cbf198808607fa2227233.43295477845388122 BNB
0x577ca42c843ca688018bd810b1b96932f66b8a330f54baa2ddbff0bdb104b85259523952021-03-24 5:50:1228 days 2 hrs ago PancakeSwap: Router0xc172dce13caf656e0924cbf198808607fa2227233.75059033079182908 BNB
[ Download CSV Export 
Loading

Contract Name:
0 BNB

Compiler Version
0

Optimization Enabled:
0 BNB

Other Settings:
-NA-
Block Transaction Gas Used Reward
Age Block Fee Address BC Fee Address Voting Power Jailed Incoming
Block Uncle Number Difficulty Gas Used Reward
Loading
Loading
Make sure to use the "Vote Down" button for any spammy posts, and the "Vote Up" for interesting conversations.